Reflectivity
-20 -20 -20 -20 -20 -20 -20 -20 -20 -20 -20 -20 -20 -20 -20 -20 -20 -20 -20 -20 -20 -20 -20 -20 -13 -14 -13 -4 -20 -20 -20 7 -20 -20 -20 -19 -18 -20 -20 -19 -20 -20 -20 -5 -20 -20 -20 -20 -20
-20 -20 -20 -20 -20 -20 -20 -20 -20 -20 -20 -20 -20 -20 -20 -20 -20 -6 10 -20 -18 -20 -20 -8 9 7 12 3 -10 -8 -10 7 2 -2 -19 -0 1 13 -20 -20 -20 -20 -20 -20 -20 -20 -20 -20 -20
-20 -20 -20 -20 -20 -20 -20 -20 -20 -20 -20 -20 -20 -20 -20 -20 -20 -20 -20 -20 -20 -20 -20 -18 -11 -17 -20 -20 -20 -20 -20 -20 -20 -20 -20 -20 -20 -19 1 -20 -20 -20 -20 -20 -20 -20 -20 -20 -20
-20 -20 -20 -20 -20 -20 -20 -20 -20 -20 -20 -20 -20 -20 -20 -20 -20 -20 -20 -20 -20 -20 -20 -20 -20 -20 -20 -20 -20 -20 -20 -20 -20 -20 -20 -20 -20 -20 -20 -19 1 -20 -17 7 20 15 -16 -20 -20
-20 -20 -20 -20 -20 -20 -20 -20 -20 -20 -20 -20 -20 -20 -20 -20 -20 -20 -20 -20 -20 -20 -20 -20 -20 -20 -20 -20 -20 -20 -20 -20 -20 -20 -20 -20 -20 -20 -20 -20 -7 -16 -20 -20 -20 -20 -20 -20 -20
-20 -20 -20 -20 -20 -20 -20 -20 -20 -20 -20 -20 -20 -20 -20 -20 -20 -20 -20 -20 -20 -20 -20 -20 -20 -20 -20 -20 -20 -20 -20 -20 -20 -20 -20 -20 -20 -20 -20 -20 -20 -20 -20 -20 -20 -20 -20 -20 -20
-20 -20 -20 -20 -20 -20 -20 -20 -20 -20 -20 -20 -20 -20 -20 -20 -20 -20 -20 -20 -20 -20 -20 -20 -20 -20 -20 -20 -20 -20 -20 -20 -20 -20 -20 -20 -20 -20 -20 -20 -20 -20 -20 -20 -20 -20 -20 -20 -20
-20 -20 -20 -20 -20 -20 -20 -20 -20 -20 -20 -20 -20 -20 -20 -20 -20 -20 -20 -20 -20 -20 -20 -20 -20 -20 -20 -20 -20 -20 -20 -20 -20 -20 -20 -20 -20 -20 -20 -20 -20 -20 -20 -20 -20 -20 -20 -20 -20
-20 -20 -20 -20 -20 -20 -20 -20 -20 -20 -20 -14 -19 -19 -20 -20 -20 -20 -20 -20 -20 -20 -20 -20 -20 -20 -20 -20 -20 -20 -20 -20 -20 -20 -20 -20 -20 -20 -20 -20 -20 -20 -20 -20 -20 -20 -20 -20 -20
-20 -20 -20 -20 -20 -20 -20 -20 -20 -20 -20 -20 -18 -20 -20 -20 -20 -20 -20 -20 -20 -20 -20 -20 -20 -20 -20 -20 -20 -20 -20 -20 -20 -20 -20 -20 -20 -20 -20 -20 -20 -20 -20 -20 -20 -20 -20 -20 -20
-20 -20 -20 -20 -20 -20 -20 -20 -20 -20 -20 -20 -20 -20 -20 -20 -20 -20 -20 -20 -20 -20 -20 -20 -20 -20 -20 -20 -20 -20 -20 -20 -20 -20 -20 -20 -20 -20 -20 -20 -20 -20 -20 -20 -20 -20 -20 -20 -20
-20 -20 -20 -20 -20 -20 -20 -20 -20 -20 -20 -20 -20 -20 -20 -20 -20 -20 -20 -20 -20 -20 -20 -20 -20 -20 -20 -20 -20 -20 -20 -20 -20 -20 -20 -20 -20 -20 -20 -20 -20 -20 -20 -20 -20 -20 -20 -20 -20
-20 -20 -20 -20 -20 -20 -20 -20 -20 -20 -20 -20 -20 -20 -20 -20 -20 -20 -20 -20 -20 -20 -20 -20 -20 -20 -20 -20 -20 -20 -20 -20 -20 -20 -20 -20 -20 -20 -20 -20 -20 -20 -20 -20 -20 -20 -20 -20 -20
-20 -20 -20 -20 -20 -20 -20 -20 -20 -20 -20 -20 -20 -20 -20 -20 -20 -20 -20 -20 -20 -20 -20 -20 -20 -20 -20 -20 -20 -20 -20 -20 -20 -20 -20 -20 -20 -20 -20 -20 -20 -20 -20 -20 -20 -20 -20 -20 -20
-20 -20 -20 -20 -20 -20 -20 -20 -20 -20 -20 -20 -20 -20 -20 -20 -20 -20 -20 -20 -20 -20 -20 -20 -20 -20 -20 -20 -20 -20 -20 -20 -20 -20 -20 -20 -20 -20 -20 -20 -20 -20 -20 -20 -20 -20 -20 -20 -20
-20 -20 -20 -20 -20 -20 -20 -20 -20 -20 -20 -20 -20 -20 -20 -20 -20 -20 -20 -20 -20 -20 -20 -20 -20 -20 -20 -20 -20 -20 -20 -20 -20 -20 -20 -20 -20 -20 -20 -20 -20 -20 -20 -20 -20 -20 -20 -20 -20
-20 -20 -20 -20 -20 -20 -20 -20 -20 -20 -20 -20 -20 -20 -20 -20 -20 -20 -20 -20 -20 -20 -20 -20 -20 -20 -20 -20 -20 -20 -20 -20 -20 -20 -20 -20 -20 -20 -20 -20 -20 -20 -20 -20 -20 -20 -20 -20 -20
-20 -20 -20 -20 -20 -20 -20 -20 -20 -20 -20 -20 -20 -20 -20 -20 -20 -20 -20 -20 -20 -20 -20 -20 -20 -20 -20 -20 -20 -20 -20 -20 -20 -20 -20 -20 -20 -20 -20 -20 -20 -20 -20 -20 -20 -20 -20 -20 -20
-20 -20 -20 -20 -20 -20 -20 -20 -20 -20 -20 -20 -20 -20 -20 -20 -20 -20 -20 -20 -20 -20 -20 -20 -20 -20 -20 -20 -20 -20 -20 -20 -20 -20 -20 -20 -20 -20 -20 -20 -20 -20 -20 -20 -20 -20 -20 -20 -20
-20 -20 -20 -20 -20 -20 -20 -20 -20 -20 -20 -20 -20 -20 -20 -20 -20 -20 -20 -20 -20 -20 -20 -20 -20 -20 -20 -20 -20 -20 -20 -20 -20 -20 -20 -20 -20 -20 -20 -20 -20 -20 -20 -20 -20 -20 -20 -20 -20
-20 -20 -20 -20 -20 -20 -20 -20 -13 -20 -20 -20 -20 -20 -20 -20 -20 -20 -20 -20 -20 -20 -20 -20 -20 -20 -20 -20 -20 -20 -20 -20 -20 -20 -20 -20 -20 -20 -20 -20 -20 -20 -20 -20 -20 -20 -20 -20 -20
-20 -20 -20 -20 -20 -20 -20 -20 -20 -20 -20 -20 -20 -20 -20 -20 -20 -20 -20 -20 -20 -20 -20 -20 -20 -20 -20 -20 -20 -20 -20 -20 -20 -20 -20 -20 -20 -20 -20 -20 -20 -20 -20 -20 -20 -20 -20 -20 -20
-20 -20 -20 -20 -20 -20 -20 -20 -20 -20 -20 -20 -20 -20 -20 -20 -20 -20 -20 -20 -20 -20 -20 -20 -20 -20 -20 -20 -20 -20 -20 -20 -20 -20 -20 -20 -20 -20 -20 -20 -20 -20 -20 -20 -20 -20 -20 -20 -20
-20 -20 -20 -20 -20 -20 -20 -20 -20 -20 -20 -20 -20 -20 -20 -20 -20 -20 -20 -20 -20 -20 -20 -20 -20 -20 -20 -20 -20 -20 -20 -20 -20 -20 -20 -20 -20 -20 -20 -20 -20 -20 -20 -20 -20 -20 -20 -20 -20
-20 -20 -20 -20 -20 -20 -20 -20 -20 -20 -20 -20 -20 -20 -20 -20 -20 -20 -20 -20 -20 -20 -20 -20 -20 -20 -20 -20 -20 -20 -20 -20 -20 -20 -20 -20 -20 -20 -20 -20 -20 -20 -20 -20 -20 -20 -20 -20 -20
-20 -20 -20 -20 -20 -20 -20 -20 -20 -20 -20 -20 -20 -20 -20 -20 -20 -20 -20 -20 -20 -20 -20 -20 -20 -20 -20 -20 -20 -20 -20 -20 -20 -20 -20 -20 -20 -20 -20 -20 -20 -20 -20 -20 -20 -20 -20 -20 -20
-20 -20 -20 -20 -20 -20 -20 -20 -20 -20 -20 -20 -20 -20 -20 -20 -20 -20 -20 -20 -20 -20 -20 -20 -20 -20 -20 -20 -20 -20 -20 -20 -20 -20 -20 -20 -20 -20 -20 -20 -20 -20 -20 -20 -20 -20 -20 -20 -20
-20 -20 -20 -20 -20 -20 -20 -20 -20 -20 -20 -20 -20 -20 -20 -20 -20 -20 -20 -20 -20 -20 -20 -20 -20 -20 -20 -20 -20 -20 -20 -20 -20 -20 -20 -20 -20 -20 -20 -20 -20 -20 -20 -20 -20 -20 -20 -20 -20
-20 -20 -20 -20 -20 -20 -20 -20 -20 -20 -20 -20 -20 -20 -20 -20 -20 -20 -20 -20 -20 -20 -20 -20 -20 -20 -20 -20 -20 -20 -20 -20 -20 -20 -20 -20 -20 -20 -20 -20 -20 -20 -20 -20 -20 -20 -20 -20 -20
-20 -20 -20 -20 -20 -20 -20 -20 -20 -20 -20 -20 -20 -20 -20 -20 -20 -20 -20 -20 -20 -20 -20 -20 -20 -20 -20 -20 -20 -20 -20 -20 -20 -20 -20 -20 -20 -20 -20 -20 -20 -20 -20 -20 -20 -20 -20 -20 -20
Wind_Speed
2 3 2 5 5 5 4 7 2 3 4 1 3 5 8 5 3 4 2 5 7 6 5 7 12 11 10 10 9 8 8 9 9 8 6 3 4 4 4 3 4 4 5 6 6 6 6 6 6
1 1 4 3 6 3 6 5 6 6 4 9 6 3 5 3 2 5 5 7 7 6 6 8 13 13 12 11 12 12 12 10 11 11 11 10 9 7 7 5 4 5 5 6 6 6 5 5 6
1 2 4 5 5 7 6 6 6 6 8 3 5 5 4 4 2 4 1 8 7 7 6 8 12 12 12 12 11 11 11 11 10 10 11 11 11 11 11 9 6 5 6 7 7 7 7 6 6
1 3 4 5 7 6 5 3 6 9 2 4 4 9 3 1 1 5 6 7 8 6 6 9 12 13 12 11 10 10 9 9 10 10 10 11 11 10 10 10 10 8 7 8 8 8 9 8 7
3 2 3 3 5 5 4 3 8 6 6 4 3 6 3 2 3 7 7 7 8 7 6 7 12 12 13 12 10 10 10 10 10 10 11 12 12 13 11 9 10 11 11 10 10 9 9 9 8
1 2 3 6 5 4 2 6 7 4 2 4 6 5 3 3 3 5 7 7 6 7 6 7 11 11 12 12 12 10 12 11 11 12 12 12 13 13 13 12 10 10 9 8 8 8 8 8 8
4 4 5 8 6 2 5 6 7 7 5 3 9 6 1 3 5 6 7 7 7 6 7 6 6 8 11 12 12 12 11 12 12 13 13 13 13 12 12 12 11 11 10 7 7 8 10 9 8
4 4 5 6 8 6 6 3 5 6 2 4 2 7 7 6 8 7 7 7 7 6 6 6 6 6 6 6 12 12 13 13 13 13 13 12 12 12 12 11 11 11 11 10 8 7 10 10 9
3 2 4 7 9 6 7 6 1 2 8 3 1 4 2 15 9 7 5 5 5 5 6 5 6 6 5 6 7 9 12 12 12 10 11 7 4 5 7 10 11 11 11 11 10 10 9 9 9
4 3 7 5 5 6 7 6 9 6 5 2 3 6 14 14 9 9 7 6 5 4 4 4 5 6 5 4 5 5 5 4 5 5 6 4 5 5 6 7 11 10 11 11 11 11 11 8 4
5 5 2 2 2 2 8 4 3 11 3 6 9 14 14 12 7 8 5 5 5 4 3 3 4 4 5 4 3 3 3 3 3 5 5 4 4 4 4 3 4 4 8 4 6 6 4 6 4
3 4 2 3 2 4 8 7 6 3 0 5 13 15 12 14 9 8 7 6 5 5 3 2 4 4 4 3 3 3 3 3 3 4 5 4 3 4 4 3 4 4 3 5 4 3 5 5 5
3 3 2 4 3 5 6 5 7 4 5 10 14 11 12 9 7 4 6 6 6 5 4 2 3 4 3 4 3 3 3 3 3 4 5 4 4 3 3 3 3 4 4 4 4 4 4 4 5
5 1 2 4 1 3 8 3 3 3 5 11 11 10 8 9 8 5 5 6 5 5 4 3 3 3 3 3 3 2 2 3 3 4 4 5 3 3 3 4 4 4 4 4 4 3 4 4 4
6 5 1 6 5 4 2 5 3 3 6 10 8 7 7 8 7 8 7 6 7 4 5 4 4 4 3 2 2 3 2 3 3 3 5 5 5 4 4 3 4 4 4 5 4 4 4 4 4
4 5 5 3 6 1 1 4 1 5 10 9 8 6 6 6 7 6 6 6 6 5 5 4 3 4 3 3 2 2 2 3 3 3 3 5 5 5 4 4 4 4 4 4 3 4 3 4 4
7 5 3 2 3 1 3 4 5 4 7 8 8 7 6 6 5 5 6 7 7 7 6 4 2 3 3 2 2 2 3 2 2 3 3 4 4 5 4 3 3 4 4 5 4 3 3 4 4
7 7 3 4 3 4 6 3 5 5 6 8 8 7 7 7 8 6 7 6 6 5 5 3 2 2 3 2 2 2 2 1 1 2 2 3 3 4 3 3 4 4 4 4 3 4 4 3 2
9 6 8 2 4 4 4 4 5 5 4 7 7 7 8 8 4 6 6 6 6 4 5 5 4 3 2 1 1 0 1 1 1 1 2 3 3 3 3 3 4 4 4 3 4 1 3 4 4
7 7 4 3 5 4 3 3 4 6 5 6 9 8 8 4 4 6 7 7 7 6 7 5 5 4 3 2 1 1 1 1 1 1 1 1 1 2 2 3 3 4 3 5 5 5 3 3 4
3 10 5 7 1 6 4 5 4 4 4 5 7 6 6 9 8 7 8 8 7 8 8 7 6 5 4 3 2 1 1 1 1 1 2 2 1 2 2 1 1 2 2 2 2 3 4 2 2
5 4 7 10 5 4 3 4 4 5 6 7 7 8 8 8 6 6 8 7 9 8 6 5 6 6 4 4 2 2 2 2 2 2 1 1 1 2 2 1 0 1 1 2 2 2 2 2 3
4 5 7 5 6 6 3 6 7 2 5 8 8 9 8 7 6 8 8 7 6 7 7 6 6 4 3 4 3 3 3 3 2 2 3 2 3 4 3 2 1 1 1 2 2 2 3 2 1
8 8 10 6 4 4 2 5 6 5 5 1 2 2 6 6 3 1 2 5 5 5 6 5 5 4 4 4 5 6 6 5 4 3 3 4 3 4 4 3 3 2 2 2 1 1 1 1 2
4 7 4 6 5 6 4 2 9 3 1 2 4 3 5 5 4 3 4 3 3 6 6 5 5 6 6 6 6 6 6 6 6 5 4 4 3 3 5 4 4 3 4 4 4 3 4 3 2
1 3 8 8 5 4 3 6 6 2 2 4 5 5 4 4 2 3 3 2 2 3 4 5 5 7 6 6 7 6 6 4 4 5 4 4 4 4 4 5 5 6 6 5 4 3 3 4 3
4 1 3 9 3 5 3 7 7 2 2 3 5 4 5 4 4 4 2 2 2 2 4 6 6 7 6 7 6 6 5 6 6 8 6 4 5 5 6 6 6 6 6 6 5 4 5 5 5
2 6 4 4 5 3 5 5 7 6 8 5 5 6 5 5 5 4 5 5 4 3 3 4 5 7 6 6 6 6 7 6 6 5 7 7 6 5 6 6 6 6 7 7 6 5 5 5 4
2 1 6 5 3 6 4 8 6 6 9 10 8 6 6 6 5 5 4 3 3 3 4 4 3 4 5 5 5 5 5 6 5 6 6 7 6 7 7 7 7 7 7 7 6 7 7 8 7
1 2 3 5 2 2 2 6 2 4 7 7 8 7 4 5 6 4 4 3 5 5 5 5 5 5 4 4 3 4 5 5 5 6 7 6 8 6 8 7 7 8 8 8 9 10 9 10 9
Wind_Direction
359 32 60 42 78 67 228 248 240 156 159 74 49 145 155 70 152 188 155 104 105 79 60 67 73 74 74 72 68 57 57 55 41 37 29 20 22 351 329 332 335 342 353 358 6 7 1 350 351
21 141 39 83 102 127 255 222 206 192 120 123 68 68 64 108 131 143 117 113 91 80 59 62 65 65 65 65 56 51 43 47 41 37 30 20 6 348 341 343 1 4 349 344 346 348 346 343 334
268 38 102 127 141 188 217 202 157 126 149 103 102 38 93 120 77 134 160 96 85 69 66 81 81 75 67 60 56 52 47 44 38 31 27 20 11 7 1 355 347 353 341 335 332 328 321 318 330
194 13 34 115 207 248 208 171 135 135 138 71 121 81 69 326 267 145 118 99 89 69 65 78 73 68 61 56 50 46 43 40 37 33 29 21 12 3 356 2 13 358 333 332 330 332 343 342 335
33 62 111 157 231 256 246 170 146 136 131 132 159 163 64 39 82 112 110 98 92 75 50 56 68 61 55 49 46 41 38 38 37 30 27 21 15 10 12 10 15 21 20 14 9 8 5 0 352
51 108 122 185 223 233 241 163 128 92 115 144 85 101 131 103 97 121 101 93 82 84 59 50 53 59 55 45 45 42 38 44 44 36 29 23 22 22 27 24 20 11 359 356 3 2 359 355 353
158 116 200 166 191 203 202 145 147 135 127 189 136 88 344 206 128 115 102 91 80 72 71 55 49 49 47 49 47 52 48 49 46 40 35 29 26 25 26 24 22 18 15 6 2 7 2 347 359
142 115 157 210 172 209 159 104 120 129 116 104 125 165 186 191 140 112 95 86 76 64 63 56 49 46 44 39 42 48 54 50 43 35 33 33 29 27 25 26 23 26 27 27 28 23 25 35 44
148 94 197 198 158 185 171 130 48 81 115 85 37 145 190 125 126 110 104 83 66 54 50 53 52 45 42 54 40 45 48 44 37 27 21 24 15 9 16 15 22 26 26 29 31 32 29 36 33
158 152 213 205 201 167 170 130 142 135 134 86 60 44 117 130 143 136 138 121 99 80 51 52 50 44 44 53 45 46 47 40 33 28 24 16 19 8 26 20 26 23 23 21 23 25 27 29 19
186 203 242 236 251 206 144 103 107 125 199 195 176 148 138 140 147 136 132 128 133 113 66 49 58 53 57 54 53 42 40 40 35 32 33 20 23 17 21 14 11 3 17 14 13 11 17 15 18
195 240 239 308 260 157 150 122 85 42 321 275 137 147 141 152 160 152 143 144 139 117 120 85 64 69 60 74 63 55 45 40 39 25 21 27 22 19 20 17 9 14 6 7 12 9 7 12 9
189 219 35 323 158 91 101 79 138 39 8 105 124 142 142 141 145 132 135 132 136 125 138 100 81 64 59 67 62 51 42 37 37 33 26 30 30 25 10 11 11 11 359 7 3 7 6 4 358
167 137 55 14 99 60 118 99 120 44 111 102 136 133 139 145 154 129 150 154 154 146 155 149 100 83 68 62 69 76 50 57 57 42 21 20 24 20 26 16 9 9 6 355 4 359 8 2 353
135 110 10 20 330 120 136 53 55 118 119 118 124 135 148 162 165 177 173 163 167 169 160 159 136 108 85 80 78 85 51 64 48 31 12 10 17 20 30 22 14 4 359 3 7 16 17 13 359
98 60 121 323 338 270 128 166 124 155 133 137 146 161 179 174 197 183 172 169 176 157 173 163 131 109 90 65 61 86 77 73 46 26 8 12 19 28 28 22 14 357 4 10 17 16 10 8 18
22 144 123 139 353 214 71 136 151 155 143 157 174 180 192 199 212 194 181 185 176 178 168 165 149 119 84 60 59 85 70 70 50 26 11 13 23 29 42 27 7 1 20 23 5 16 27 12 357
161 117 74 133 323 44 77 93 139 167 161 181 183 193 203 208 216 187 185 187 177 179 171 169 171 120 87 82 81 59 43 51 61 30 22 22 21 27 42 28 22 23 32 16 12 40 27 42 345
124 110 114 2 328 94 64 106 196 158 167 193 204 207 217 222 217 180 187 178 170 178 178 191 176 190 176 105 118 82 251 296 321 15 28 40 30 31 42 33 25 14 37 17 2 8 44 22 358
105 119 78 37 343 87 65 88 186 184 215 196 200 220 223 202 183 191 192 182 188 186 200 202 215 188 208 149 157 144 189 246 266 281 323 16 27 20 50 33 21 17 21 17 15 24 4 19 14
81 139 156 141 157 44 79 341 176 214 231 217 221 217 206 209 205 206 201 199 193 204 198 205 212 203 205 160 111 102 46 14 350 293 283 264 355 18 39 37 67 27 49 29 19 21 47 7 355
127 137 122 125 91 155 15 244 278 211 226 227 232 218 223 215 210 209 211 202 204 209 199 204 213 203 202 159 167 187 198 219 232 232 248 283 247 245 241 230 36 21 25 5 354 36 38 44 7
163 111 109 98 89 97 337 72 268 43 248 242 235 230 224 215 214 226 221 219 206 180 197 204 212 203 194 182 194 206 229 237 274 273 276 266 252 249 257 252 300 330 345 311 341 16 29 39 53
150 85 52 60 79 35 353 119 272 190 218 241 213 278 200 182 162 152 179 184 192 184 189 201 206 226 210 200 213 217 229 248 259 272 272 261 264 266 257 254 242 255 263 272 294 326 313 201 174
70 78 37 24 19 211 322 98 239 234 271 257 181 119 133 129 121 115 123 169 186 187 199 206 207 240 225 222 229 228 234 241 248 251 239 251 258 254 258 233 232 230 228 229 216 221 228 228 215
203 115 146 157 172 215 350 226 257 206 38 53 98 132 128 135 127 129 116 123 152 202 207 220 225 243 233 234 244 237 235 230 238 241 244 245 235 238 237 237 231 232 232 229 221 223 233 223 232
203 16 152 107 32 73 229 286 304 173 114 100 129 138 160 158 151 146 117 69 3 326 268 237 237 248 241 242 247 248 243 235 237 239 231 236 244 245 244 237 238 235 233 230 220 226 237 224 227
140 149 69 6 125 186 296 278 238 211 196 180 179 180 173 148 136 95 66 46 34 14 320 281 246 250 256 250 239 239 235 235 244 250 251 244 252 243 248 244 236 238 232 228 217 227 232 228 230
105 37 54 113 103 150 142 256 209 219 186 184 194 186 174 154 118 94 67 39 27 20 18 7 350 281 276 259 259 262 268 259 256 249 252 244 252 242 243 242 238 233 231 224 219 226 225 226 226
76 141 124 107 211 61 122 274 345 252 187 172 178 179 173 136 120 101 81 53 33 22 17 12 8 14 342 305 290 283 283 278 268 257 255 248 248 244 239 237 236 236 231 224 220 230 227 221 227